DW3929 Weather Reports


Display with metric or nautical units.
time (UTC)temp
F
wind
direction
speed
MPH
gust
MPH
rain 1hr
in
rain 24hr
in
rain mn
in
humidity
%
barometer
mb
20260504081331 62 360 0.0 2.0 0.00 0.01 0.00 84 1015.2
20260504080831 62 360 0.0 2.0 0.00 0.01 0.00 84 1015.3
20260504080331 62 360 1.0 2.0 0.00 0.01 0.00 83 1015.2
20260504050326 66 360 4.0 9.0 0.00 0.01 0.00 74 1017.1
20260504045826 66 360 4.0 12.0 0.00 0.01 0.01 74 1017.1
20260504045326 67 360 5.0 12.0 0.00 0.01 0.01 74 1017.2
20260504044827 67 360 5.0 12.0 0.00 0.01 0.01 73 1017.0
20260504044330 67 360 5.0 9.0 0.00 0.01 0.01 73 1017.1
20260504043829 67 360 4.0 9.0 0.00 0.01 0.01 73 1017.3
20260504043330 67 360 4.0 9.0 0.00 0.01 0.01 72 1017.4
20260504042831 67 360 6.0 11.0 0.00 0.01 0.01 72 1017.3
20260504042313 67 360 5.0 11.0 0.00 0.01 0.01 72 1017.4
20260504041812 67 360 5.0 11.0 0.00 0.01 0.01 72 1017.4
20260504041331 67 360 4.0 10.0 0.00 0.01 0.01 72 1017.5
20260504040812 67 360 5.0 10.0 0.00 0.01 0.01 72 1017.5
20260504040313 67 360 5.0 9.0 0.00 0.01 0.01 71 1017.5
20260504035830 67 360 4.0 9.0 0.00 0.01 0.01 71 1017.6
20260504035330 67 360 5.0 9.0 0.00 0.01 0.01 71 1017.4
20260504034829 67 360 4.0 10.0 0.00 0.01 0.01 71 1017.4
20260504034350 67 360 4.0 11.0 0.00 0.01 0.01 71 1017.3
20260504033829 67 360 5.0 11.0 0.00 0.01 0.01 71 1017.3
20260504033328 67 360 4.0 10.0 0.00 0.01 0.01 71 1017.3
20260504032828 67 360 5.0 9.0 0.00 0.01 0.01 71 1017.4
20260504032327 67 360 4.0 11.0 0.00 0.01 0.01 71 1017.4
20260504031825 67 360 4.0 11.0 0.00 0.01 0.01 72 1017.4
20260504031323 67 360 3.0 9.0 0.00 0.01 0.01 72 1017.4
20260504030824 67 360 4.0 9.0 0.00 0.01 0.01 71 1017.3
20260504030345 67 360 4.0 9.0 0.00 0.01 0.01 71 1017.2
20260504025821 66 360 4.0 9.0 0.00 0.01 0.01 72 1017.1
20260504025321 66 360 3.0 6.0 0.00 0.01 0.01 72 1017.1
20260504024821 65 360 3.0 6.0 0.00 0.01 0.01 73 1017.1
20260504024322 65 360 3.0 6.0 0.00 0.01 0.01 74 1017.1
20260504023822 64 360 3.0 8.0 0.00 0.01 0.01 75 1017.1
20260504023320 64 360 3.0 6.0 0.00 0.01 0.01 78 1017.1
20260504022820 64 360 3.0 5.0 0.00 0.01 0.01 80 1017.0
20260504022339 64 360 1.0 4.0 0.00 0.01 0.01 79 1017.1
20260504021818 65 360 0.0 0.0 0.00 0.01 0.01 79 1017.0
20260504021337 65 360 0.0 0.0 0.00 0.01 0.01 77 1016.8
20260504020817 65 360 0.0 0.0 0.00 0.01 0.01 76 1016.7
20260504020338 66 360 0.0 0.0 0.00 0.01 0.01 76 1016.6
20260504015817 66 360 0.0 1.0 0.00 0.01 0.01 74 1016.6
20260504015338 67 360 0.0 1.0 0.00 0.01 0.01 73 1016.4
20260504014817 67 360 0.0 1.0 0.00 0.01 0.01 71 1016.4
20260504014316 68 360 0.0 0.0 0.00 0.01 0.01 71 1016.4
20260504013817 68 360 0.0 0.0 0.00 0.01 0.01 70 1016.3
20260504013316 69 360 0.0 0.0 0.00 0.01 0.01 67 1016.3
20260504012815 69 360 0.0 1.0 0.00 0.01 0.01 66 1016.3
20260504012314 70 360 0.0 1.0 0.00 0.01 0.01 64 1016.2
20260504011815 71 360 0.0 0.0 0.00 0.01 0.01 62 1016.3
20260504011315 72 360 0.0 1.0 0.00 0.01 0.01 62 1016.2
20260504010816 72 360 0.0 2.0 0.00 0.01 0.01 60 1016.2
20260504010315 72 360 0.0 2.0 0.00 0.01 0.01 60 1016.2
20260504005814 73 360 0.0 3.0 0.00 0.01 0.01 57 1016.3
20260504005335 74 360 1.0 3.0 0.00 0.01 0.01 57 1016.3
20260504004815 74 360 0.0 4.0 0.00 0.01 0.01 55 1016.2
20260504004315 75 360 2.0 4.0 0.00 0.01 0.01 55 1016.2
20260504003815 75 360 2.0 3.0 0.00 0.01 0.01 53 1016.2
20260504003314 75 360 2.0 4.0 0.00 0.01 0.01 53 1016.3
20260504002833 76 360 2.0 8.0 0.00 0.01 0.01 51 1016.4
20260504002326 76 360 4.0 9.0 0.00 0.01 0.01 50 1016.4
20260504001824 77 360 3.0 6.0 0.00 0.01 0.01 50 1016.6
20260504001325 77 360 2.0 6.0 0.00 0.01 0.01 49 1016.6
20260504000826 77 360 2.0 8.0 0.00 0.01 0.01 48 1016.7
20260504000325 78 360 4.0 8.0 0.00 0.01 0.01 46 1016.7
20260503235826 78 360 3.0 6.0 0.00 0.01 0.01 47 1016.8
20260503235327 78 360 3.0 9.0 0.00 0.01 0.01 45 1016.8
20260503234826 79 360 3.0 10.0 0.00 0.01 0.01 45 1016.7
20260503234346 79 360 5.0 9.0 0.00 0.01 0.01 44 1016.7
20260503233824 79 360 3.0 9.0 0.00 0.01 0.01 45 1016.7
20260503233326 80 360 5.0 9.0 0.00 0.01 0.01 43 1016.7
20260503232823 80 360 4.0 9.0 0.00 0.01 0.01 44 1016.7
20260503232320 81 360 1.0 8.0 0.00 0.01 0.01 45 1016.8
20260503231819 81 360 3.0 11.0 0.00 0.01 0.01 43 1016.7
20260503231316 81 360 4.0 11.0 0.00 0.01 0.01 43 1016.6
20260503230816 81 360 4.0 9.0 0.00 0.01 0.01 41 1016.6
20260503230313 80 360 3.0 10.0 0.00 0.01 0.01 45 1016.7
20260503225831 80 360 5.0 10.0 0.00 0.01 0.01 43 1016.8
20260503225330 81 360 4.0 9.0 0.00 0.01 0.01 42 1016.8
20260503224828 82 360 3.0 11.0 0.00 0.01 0.01 39 1016.9
20260503224345 83 360 7.0 12.0 0.00 0.01 0.01 40 1017.1
20260503223825 83 360 7.0 12.0 0.00 0.01 0.01 39 1017.1
20260503223324 84 360 4.0 9.0 0.00 0.01 0.01 40 1017.1
20260503222821 83 360 2.0 9.0 0.00 0.01 0.01 42 1017.2
20260503222341 83 360 4.0 14.0 0.00 0.01 0.01 39 1017.2
20260503221839 84 360 6.0 14.0 0.00 0.01 0.01 37 1017.2
20260503221317 84 360 4.0 11.0 0.00 0.01 0.01 40 1017.3
20260503220817 84 360 5.0 11.0 0.00 0.01 0.01 41 1017.5
20260503220337 84 360 4.0 10.0 0.00 0.01 0.01 39 1017.5
20260503215815 84 360 4.0 10.0 0.00 0.01 0.01 41 1017.6
20260503215314 84 360 4.0 10.0 0.00 0.01 0.01 42 1017.6
20260503214812 83 360 6.0 12.0 0.00 0.01 0.01 39 1017.6
20260503214332 83 360 8.0 12.0 0.00 0.01 0.01 42 1017.6
20260503213831 83 360 2.0 10.0 0.00 0.01 0.01 43 1017.8
20260503213331 83 360 5.0 10.0 0.00 0.01 0.01 39 1018.0
20260503212830 83 360 4.0 9.0 0.00 0.01 0.01 39 1018.1
20260503212326 82 360 3.0 13.0 0.00 0.01 0.01 43 1018.2
20260503211848 82 360 9.0 14.0 0.00 0.01 0.01 40 1018.4
20260503211327 82 360 6.0 13.0 0.00 0.01 0.01 42 1018.4
20260503210826 82 360 4.0 12.0 0.00 0.01 0.01 42 1018.5
20260503210325 82 360 6.0 12.0 0.00 0.01 0.01 38 1018.5
20260503205825 83 360 5.0 13.0 0.00 0.01 0.01 41 1018.7
20260503205324 82 360 5.0 13.0 0.00 0.01 0.01 40 1018.8
20260503204824 82 360 4.0 17.0 0.00 0.01 0.01 40 1018.9
20260503204340 82 360 9.0 17.0 0.00 0.01 0.01 38 1019.0
20260503203817 83 360 5.0 12.0 0.00 0.01 0.01 39 1019.0
20260503203317 83 360 3.0 12.0 0.00 0.01 0.01 42 1019.1
20260503202814 82 360 3.0 12.0 0.00 0.01 0.01 40 1019.2
20260503202312 82 360 5.0 12.0 0.00 0.01 0.01 43 1019.2
20260503201812 83 360 4.0 9.0 0.00 0.01 0.01 42 1019.3
20260503201332 82 360 4.0 9.0 0.00 0.01 0.01 40 1019.3
20260503200831 83 360 5.0 13.0 0.00 0.01 0.01 38 1019.4
20260503200332 83 360 5.0 13.0 0.00 0.01 0.01 38 1019.6
20260503195830 83 360 3.0 8.0 0.00 0.01 0.01 41 1019.6
20260503195329 82 360 4.0 13.0 0.00 0.01 0.01 40 1019.6
20260503194829 82 360 4.0 12.0 0.00 0.01 0.01 43 1019.8
20260503194348 82 360 6.0 12.0 0.00 0.01 0.01 40 1019.7
20260503193845 82 360 5.0 10.0 0.00 0.01 0.01 39 1019.8
20260503193325 82 360 5.0 11.0 0.00 0.01 0.01 39 1020.0
20260503192824 82 360 5.0 11.0 0.00 0.01 0.01 41 1020.1
20260503192324 82 360 4.0 13.0 0.00 0.01 0.01 38 1020.0
20260503191823 82 360 4.0 13.0 0.00 0.01 0.01 41 1020.2
20260503191320 82 360 6.0 12.0 0.00 0.01 0.01 38 1020.3
20260503190820 82 360 5.0 11.0 0.00 0.01 0.01 42 1020.3
20260503190320 81 360 5.0 11.0 0.00 0.01 0.01 40 1020.5
20260503185840 81 360 5.0 11.0 0.00 0.01 0.01 41 1020.5
20260503185317 81 360 4.0 11.0 0.00 0.01 0.01 38 1020.5
20260503184817 81 360 7.0 12.0 0.00 0.01 0.01 40 1020.7
20260503184316 82 360 7.0 12.0 0.00 0.01 0.01 42 1020.7
20260503183837 82 360 4.0 11.0 0.00 0.01 0.01 45 1020.6
20260503183313 82 360 5.0 11.0 0.00 0.01 0.01 43 1020.8
20260503182813 81 360 3.0 11.0 0.00 0.01 0.01 43 1020.9
20260503182315 81 360 4.0 15.0 0.00 0.01 0.01 41 1021.0
20260503181814 81 360 9.0 15.0 0.00 0.01 0.01 43 1021.1
20260503181335 81 360 5.0 11.0 0.00 0.01 0.01 40 1021.2
20260503180830 81 360 3.0 14.0 0.00 0.01 0.01 43 1021.3
20260503180317 81 360 6.0 14.0 0.00 0.01 0.01 41 1021.4
20260503175851 82 360 4.0 14.0 0.00 0.01 0.01 42 1021.4
20260503175329 81 360 4.0 9.0 0.00 0.01 0.01 44 1021.5
20260503174826 81 360 3.0 12.0 0.00 0.01 0.01 44 1021.6
20260503174326 81 360 6.0 12.0 0.00 0.01 0.01 47 1021.7
20260503173825 80 360 6.0 11.0 0.00 0.01 0.01 46 1021.8
20260503173324 80 360 3.0 10.0 0.00 0.01 0.01 45 1021.8
20260503172839 80 360 5.0 10.0 0.00 0.01 0.01 47 1022.0
20260503172315 80 360 2.0 19.0 0.00 0.01 0.01 46 1022.0
20260503171814 79 360 4.0 19.0 0.00 0.01 0.01 49 1022.2
20260503171334 80 360 6.0 19.0 0.00 0.01 0.01 47 1022.2
20260503170813 79 360 6.0 12.0 0.00 0.01 0.01 47 1022.3
20260503170313 79 360 6.0 12.0 0.00 0.01 0.01 46 1022.4
20260503150828 73 360 4.0 8.0 0.00 0.01 0.01 66 1022.9
20260503150326 72 360 2.0 6.0 0.00 0.01 0.01 67 1022.8
20260503131323 54 360 0.0 2.0 0.01 0.01 0.01 99 1022.5
20260503130842 53 360 0.0 0.0 0.01 0.01 0.01 99 1022.4
20260503130341 52 360 0.0 0.0 0.01 0.01 0.01 99 1022.3
20260503110815 49 360 0.0 0.0 0.00 0.00 0.00 97 1021.6
20260503110314 49 360 0.0 0.0 0.00 0.00 0.00 97 1021.5
20260503090328 50 360 0.0 0.0 0.00 0.00 0.00 96 1020.9